Regional Weather Roundup
Issued by NWS New Orleans/Baton Rouge, LA

Home | Current Version | Previous Version | Text Only | Print | Product List | Glossary Off
Versions: 1 2 3 4 5 6 7 8 9 10 11 12 13 14 15 16 17 18 19 20 21 22 23 24 25 26 27 28 29 30 31 32 33 34 35 36 37 38 39 40 41 42 43 44 45 46 47 48 49 50

588
ASUS44 KLIX 291005
RWRLIX
NEW ORLEANS REGIONAL WEATHER ROUNDUP
NATIONAL WEATHER SERVICE NEW ORLEANS LA
500 AM CDT TUE JUL 29 2014

NOTE: "FAIR" INDICATES FEW OR NO CLOUDS BELOW 12,000 FEET WITH NO
      SIGNIFICANT WEATHER AND/OR OBSTRUCTIONS TO VISIBILITY.
      SKY/WX - SKY CONDITION AND SIGNIFICANT WEATHER.
      TMP - AIR TEMPERATURE.     DP    - DEWPOINT TEMPERATURE.
      RH  - RELATIVE HUMIDITY.   PRES  - PRESSURE.
      HI  - HEAT INDEX.          WCI   - WIND CHILL INDEX.

*  THESE STATIONS ARE NOT NWS OR FAA STATIONS AND ARE NOT UNDER
   NWS QUALITY CONTROL.

LAZ038-040-048-061>063-065>067-069-291100-
SOUTHEAST LOUISIANA

CITY           SKY/WX    TMP DP  RH WIND       PRES   REMARKS
N.O. AUDUBON     N/A     82  70  68 MISG        N/A
N.O. INTL ARPT MOCLDY    80  69  69 NE9       30.01R
N.O. LAKEFRONT PTCLDY    81  69  67 NE16      30.01R
N.O. DOWNTOWN*   N/A     81  66  61 N6        30.01R
SLIDELL        CLEAR     74  70  87 NW5       30.00R
BATON ROUGE    MOCLDY    74  71  91 CALM      30.03R
BOOTHVILLE     CLOUDY    81  76  84 W5        29.98R
BELLE CHASSE   MOCLDY    79  69  71 N5        30.00R
BOGALUSA*        N/A     71  67  88 N3        30.03R
GALLIANO*      NOT AVBL
NEW ROADS*       N/A     73  71  92 CALM      30.03R
GONZALES*        N/A     76  75  97 CALM      30.03R
HAMMOND*       PTCLDY    73  68  83 CALM      30.05R
HOUMA*         MOCLDY    78  71  78 NW3       30.02R
PORT FOURCHON* CLOUDY    82  77  83 NW7       30.01R

$$

MSZ070-080>082-291100-
SOUTHERN MISSISSIPPI

CITY           SKY/WX    TMP DP  RH WIND       PRES   REMARKS
MCCOMB         PTCLDY    71  65  81 CALM      30.03R
GULFPORT       CLEAR     78  67  68 N6        29.97S
BILOXI         CLEAR     75  68  79 VRB3      29.98R
PASCAGOULA     CLEAR     72  68  87 N3        29.97S

$$

COASTAL OBSERVATIONS
LAKE AND NEARSHORE STATIONS

STATION/POSITION TIME  TEMP    WIND        PRES    WAVE
                       AIR SEA DIR/SP/G            HT/PER
                 (UTC) (F)     (DEG/KT/KT) (MB)    (FT/S)
PASCAGOULA       1000   76      10/  8/ 10 1014.2
WAVELAND YACHT   1000   78      10/  9/ 12 1014.6
GRAND ISLE       1000   81 87   60/  7/ 10 1015.8
SOUTHWEST PASS   1000   82 84  360/ 12/ 14 1015.5
NEW CANAL        1000   82 84   50/ 13/ 15 1016.5
SHELL BEACH      1000   82 82   30/ 11/ 14 1015.3

OFFSHORE STATIONS

STATION/POSITION TIME  TEMP    WIND        PRES    WAVE
                       AIR SEA DIR/SP/G            HT/PER
                 (UTC) (F)     (DEG/KT/KT) (MB)    (FT/S)
64 S DAUPHIN ISL 0942   84 86  350/ 14/ 16 1014.2

$$




USA.gov is the U.S. government's official web portal to all federal, state and local government web resources and services.